TAP478 EGKK-EGCC

Flight info

Callsign TAP478
Flight time 0h 55m
Altitude 24000
Route LAM N57 WELIN T420 ELVOS
Aircraft A319/M-SDE3FGHIRWY/LB1

Departure

Time 2026-05-04 10:51
Airport London Gatwick Airport (EGKK)

Arrival

Time 2026-05-04 11:47
Airport Manchester Airport (EGCC)
Time Latitude Longitude Altitude Speed Heading
2026-05-04 10:26 51.15472 -0.17091 205 ft 0 kts 348°
2026-05-04 10:35 51.15463 -0.17088 205 ft 2 kts 347°
2026-05-04 10:35 51.15447 -0.17082 218 ft 2 kts 345°
2026-05-04 10:36 51.15431 -0.17075 214 ft 2 kts 336°
2026-05-04 10:36 51.15418 -0.17059 217 ft 2 kts 263°
2026-05-04 10:36 51.15420 -0.17045 215 ft 1 kts 257°
2026-05-04 10:41 51.15419 -0.17051 205 ft 1 kts 257°
2026-05-04 10:41 51.15415 -0.17076 210 ft 3 kts 257°
2026-05-04 10:41 51.15409 -0.17121 205 ft 5 kts 255°
2026-05-04 10:42 51.15393 -0.17178 208 ft 6 kts 245°
2026-05-04 10:42 51.15377 -0.17251 208 ft 8 kts 251°
2026-05-04 10:42 51.15356 -0.17338 210 ft 9 kts 241°
2026-05-04 10:42 51.15316 -0.17412 207 ft 9 kts 247°
2026-05-04 10:43 51.15292 -0.17509 207 ft 10 kts 255°
2026-05-04 10:44 51.15108 -0.18901 208 ft 23 kts 257°
2026-05-04 10:45 51.15071 -0.19155 210 ft 24 kts 257°
2026-05-04 10:45 51.15035 -0.19422 206 ft 25 kts 258°
2026-05-04 10:45 51.14995 -0.19711 208 ft 26 kts 257°
2026-05-04 10:45 51.14954 -0.19995 213 ft 28 kts 257°
2026-05-04 10:46 51.14919 -0.20295 205 ft 27 kts 256°
2026-05-04 10:46 51.14874 -0.20592 205 ft 28 kts 257°
2026-05-04 10:46 51.14832 -0.20893 205 ft 29 kts 258°
2026-05-04 10:46 51.14799 -0.21126 205 ft 14 kts 255°
2026-05-04 10:47 51.14769 -0.21283 210 ft 16 kts 255°
2026-05-04 10:47 51.14738 -0.21402 209 ft 2 kts 220°
2026-05-04 10:47 51.14726 -0.21406 208 ft 0 kts 191°
2026-05-04 10:49 51.14540 -0.21275 207 ft 6 kts 135°
2026-05-04 10:49 51.14521 -0.21211 208 ft 7 kts 111°
2026-05-04 10:50 51.14524 -0.21140 206 ft 6 kts 72°
2026-05-04 10:51 51.15752 -0.12206 2724 ft 211 kts 78°
2026-05-04 10:52 51.16083 -0.09783 3359 ft 236 kts 78°
2026-05-04 10:52 51.16512 -0.07113 4031 ft 263 kts 68°
2026-05-04 10:52 51.17559 -0.04628 4744 ft 278 kts 51°
2026-05-04 10:54 51.27754 0.07514 7649 ft 285 kts
2026-05-04 10:54 51.29751 0.07720 8741 ft 290 kts
2026-05-04 10:56 51.46141 0.09020 14266 ft 372 kts
2026-05-04 10:56 51.48749 0.09210 15047 ft 377 kts
2026-05-04 10:56 51.51384 0.09408 15822 ft 383 kts
2026-05-04 10:57 51.54066 0.09620 16612 ft 388 kts
2026-05-04 10:57 51.56779 0.09845 17382 ft 393 kts
2026-05-04 10:57 51.59530 0.10087 18148 ft 399 kts
2026-05-04 10:57 51.62320 0.10342 18833 ft 404 kts
2026-05-04 10:58 51.65142 0.10595 19524 ft 408 kts
2026-05-04 10:58 51.67985 0.10561 20202 ft 410 kts 350°
2026-05-04 10:58 51.70724 0.09299 20876 ft 409 kts 332°
2026-05-04 10:58 51.73100 0.06816 21563 ft 408 kts 316°
2026-05-04 10:59 51.75265 0.03836 22251 ft 411 kts 316°
2026-05-04 10:59 51.77449 0.00811 22908 ft 416 kts 316°
2026-05-04 10:59 51.79651 -0.02244 23538 ft 420 kts 316°
2026-05-04 10:59 51.81879 -0.05337 23919 ft 424 kts 316°
2026-05-04 11:00 51.84138 -0.08469 24024 ft 427 kts 316°
2026-05-04 11:01 52.00179 -0.30788 24054 ft 436 kts 316°
2026-05-04 11:02 52.02471 -0.34005 24051 ft 436 kts 316°
2026-05-04 11:02 52.04761 -0.37224 24052 ft 436 kts 316°
2026-05-04 11:05 52.16036 -0.53088 24060 ft 436 kts 316°
2026-05-04 11:22 52.20328 -0.59035 24040 ft 434 kts 316°
2026-05-04 11:22 52.22600 -0.62268 24052 ft 433 kts 316°
2026-05-04 11:23 52.24860 -0.65515 24055 ft 433 kts 316°
2026-05-04 11:23 52.27117 -0.68767 24061 ft 432 kts 316°
2026-05-04 11:24 52.40647 -0.88129 24062 ft 429 kts 316°
2026-05-04 11:25 52.42894 -0.91348 24063 ft 429 kts 316°
2026-05-04 11:25 52.45136 -0.94568 24061 ft 429 kts 316°
2026-05-04 11:25 52.47378 -0.97794 24057 ft 428 kts 316°
2026-05-04 11:26 52.51855 -1.04250 24054 ft 428 kts 316°
2026-05-04 11:27 52.67218 -1.26593 20758 ft 406 kts 316°
2026-05-04 11:28 52.69326 -1.29651 20221 ft 403 kts 318°
2026-05-04 11:28 52.71613 -1.32332 19732 ft 406 kts 326°
2026-05-04 11:28 52.74020 -1.34798 19069 ft 407 kts 327°
2026-05-04 11:28 52.76426 -1.37241 18471 ft 404 kts 327°
2026-05-04 11:29 52.78813 -1.39659 17838 ft 402 kts 327°
2026-05-04 11:29 52.81188 -1.42069 17248 ft 398 kts 327°
2026-05-04 11:29 52.83528 -1.44451 16667 ft 393 kts 327°
2026-05-04 11:29 52.85842 -1.46816 16096 ft 389 kts 327°
2026-05-04 11:31 53.01140 -1.63112 12422 ft 359 kts 312°
2026-05-04 11:33 53.08088 -1.88494 10574 ft 309 kts 291°
2026-05-04 11:33 53.08625 -1.90635 10488 ft 297 kts 291°
2026-05-04 11:33 53.09402 -1.93743 10154 ft 287 kts 291°
2026-05-04 11:34 53.10158 -1.96783 9955 ft 283 kts 291°
2026-05-04 11:34 53.10909 -1.99812 9829 ft 283 kts 291°
2026-05-04 11:34 53.11657 -2.02834 9704 ft 282 kts 291°
2026-05-04 11:34 53.12406 -2.05851 9526 ft 282 kts 291°
2026-05-04 11:35 53.13161 -2.08894 8993 ft 284 kts 291°
2026-05-04 11:35 53.13912 -2.11929 8459 ft 285 kts 291°
2026-05-04 11:35 53.14659 -2.14950 8111 ft 280 kts 292°
2026-05-04 11:35 53.15395 -2.17928 7568 ft 277 kts 292°
2026-05-04 11:36 53.16123 -2.20880 7009 ft 275 kts 292°
2026-05-04 11:36 53.16852 -2.23844 6439 ft 273 kts 292°
2026-05-04 11:36 53.17563 -2.26736 5863 ft 271 kts 292°
2026-05-04 11:36 53.18272 -2.29620 5300 ft 268 kts 293°
2026-05-04 11:37 53.18976 -2.32490 4710 ft 266 kts 293°
2026-05-04 11:37 53.19661 -2.35291 4331 ft 252 kts 293°
2026-05-04 11:37 53.20300 -2.37917 4066 ft 236 kts 293°
2026-05-04 11:37 53.20897 -2.40384 3805 ft 222 kts 291°
2026-05-04 11:38 53.21074 -2.42848 3564 ft 212 kts 263°
2026-05-04 11:38 53.20753 -2.45236 3317 ft 211 kts 256°
2026-05-04 11:38 53.20326 -2.47570 3067 ft 210 kts 247°
2026-05-04 11:38 53.19667 -2.49697 2996 ft 203 kts 242°
2026-05-04 11:39 53.18977 -2.51732 2999 ft 201 kts 241°
2026-05-04 11:39 53.18286 -2.53754 3015 ft 199 kts 242°
2026-05-04 11:40 53.19187 -2.63440 3005 ft 183 kts
2026-05-04 11:41 53.20418 -2.62941 2999 ft 183 kts 26°
2026-05-04 11:41 53.21334 -2.61490 3003 ft 186 kts 59°
2026-05-04 11:41 53.21644 -2.59407 3019 ft 187 kts 83°
2026-05-04 11:41 53.21779 -2.57252 3010 ft 186 kts 82°
2026-05-04 11:42 53.21934 -2.55113 3003 ft 186 kts 78°
2026-05-04 11:42 53.22451 -2.53163 3003 ft 185 kts 53°
2026-05-04 11:42 53.23257 -2.51498 3009 ft 185 kts 50°
2026-05-04 11:42 53.24069 -2.49840 2999 ft 184 kts 50°
2026-05-04 11:43 53.24874 -2.48191 2871 ft 179 kts 50°
2026-05-04 11:43 53.25638 -2.46624 2650 ft 170 kts 50°
2026-05-04 11:43 53.26360 -2.45142 2445 ft 159 kts 50°
2026-05-04 11:43 53.27036 -2.43754 2232 ft 149 kts 50°
2026-05-04 11:44 53.27655 -2.42482 2044 ft 134 kts 50°
2026-05-04 11:44 53.28224 -2.41312 1858 ft 127 kts 50°
2026-05-04 11:44 53.28774 -2.40182 1686 ft 124 kts 50°
2026-05-04 11:44 53.29316 -2.39068 1523 ft 123 kts 50°
2026-05-04 11:45 53.29855 -2.37958 1351 ft 123 kts 50°
2026-05-04 11:45 53.30393 -2.36850 1158 ft 123 kts 50°
2026-05-04 11:45 53.30929 -2.35745 972 ft 122 kts 50°
2026-05-04 11:45 53.31464 -2.34643 787 ft 122 kts 50°
2026-05-04 11:46 53.31997 -2.33545 625 ft 122 kts 50°
2026-05-04 11:46 53.32530 -2.32450 453 ft 121 kts 50°
2026-05-04 11:46 53.33058 -2.31361 297 ft 120 kts 50°
2026-05-04 11:46 53.33564 -2.30311 211 ft 103 kts 51°
2026-05-04 11:47 53.33925 -2.29573 212 ft 57 kts 51°
2026-05-04 11:47 53.34097 -2.29210 225 ft 30 kts 51°
2026-05-04 11:47 53.34227 -2.28944 220 ft 29 kts 50°
2026-05-04 11:47 53.34359 -2.28690 221 ft 29 kts 42°
2026-05-04 11:48 53.34521 -2.28528 227 ft 23 kts 20°
2026-05-04 11:48 53.34652 -2.28443 226 ft 15 kts 21°
2026-05-04 11:48 53.34730 -2.28367 227 ft 14 kts 45°
2026-05-04 11:48 53.34790 -2.28240 229 ft 14 kts 51°
2026-05-04 11:49 53.34858 -2.28098 230 ft 19 kts 51°
2026-05-04 11:49 53.34946 -2.27922 232 ft 20 kts 50°
2026-05-04 11:49 53.35035 -2.27737 234 ft 21 kts 51°
2026-05-04 11:49 53.35125 -2.27549 237 ft 21 kts 52°
2026-05-04 11:50 53.35217 -2.27357 239 ft 21 kts 50°
2026-05-04 11:50 53.35329 -2.27196 240 ft 22 kts 12°
2026-05-04 11:50 53.35456 -2.27300 242 ft 20 kts 321°
2026-05-04 11:50 53.35540 -2.27415 241 ft 10 kts 321°
2026-05-04 11:51 53.35545 -2.27422 241 ft 1 kts 321°
2026-05-04 11:51 53.35558 -2.27439 241 ft 4 kts 321°
2026-05-04 11:51 53.35585 -2.27475 241 ft 6 kts 321°